FW8688 Weather Reports


Display with metric or nautical units.
time (UTC)temp
F
wind
direction
speed
MPH
gust
MPH
rain 1hr
in
rain 24hr
in
rain mn
in
humidity
%
barometer
mb
20260831211805 80 176 8.0 14.0 0.00 0.02 0.00 50 1012.4
20260831211306 81 162 10.0 15.0 0.00 0.02 0.00 46 1012.3
20260831210805 82 170 6.0 12.0 0.00 0.02 0.00 44 1012.3
20260831210305 83 170 7.0 12.0 0.00 0.02 0.00 41 1012.3
20260831205805 83 154 5.0 8.0 0.00 0.02 0.00 39 1012.3
20260831204805 83 164 4.0 7.0 0.00 0.02 0.00 39 1012.6
20260831204305 83 152 6.0 12.0 0.00 0.02 0.00 38 1012.7
20260831203805 83 144 6.0 10.0 0.00 0.02 0.00 37 1012.9
20260831202306 82 145 5.0 10.0 0.00 0.02 0.00 38 1013.1
20260831201805 82 143 8.0 12.0 0.00 0.02 0.00 37 1013.1
20260831200805 82 148 6.0 9.0 0.00 0.02 0.00 40 1013.1
20260831200305 82 144 4.0 8.0 0.00 0.02 0.00 40 1013.1
20260831195306 82 135 4.0 8.0 0.00 0.02 0.00 41 1013.2
20260831194305 81 121 5.0 9.0 0.00 0.02 0.00 41 1013.6
20260831193805 81 144 4.0 9.0 0.00 0.02 0.00 43 1013.5
20260831193305 81 143 3.0 9.0 0.00 0.02 0.00 44 1013.8
20260831192306 80 145 6.0 10.0 0.00 0.02 0.00 42 1013.8
20260831191805 80 136 6.0 10.0 0.00 0.02 0.00 46 1014.2
20260831191305 80 166 4.0 7.0 0.00 0.02 0.00 48 1014.2
20260831190305 79 133 4.0 8.0 0.00 0.02 0.00 48 1014.2
20260831185805 78 137 6.0 9.0 0.00 0.02 0.00 49 1014.9
20260831185306 78 154 3.0 7.0 0.00 0.02 0.00 50 1014.9
20260831184805 77 138 2.0 7.0 0.00 0.02 0.00 51 1014.9
20260831184304 77 165 3.0 6.0 0.00 0.02 0.00 51 1014.9
20260831183805 76 156 4.0 8.0 0.00 0.02 0.00 50 1014.9
20260831183305 76 131 2.0 8.0 0.00 0.02 0.00 53 1014.9
20260831182805 76 130 4.0 8.0 0.00 0.02 0.00 52 1014.9
20260831182306 75 176 3.0 7.0 0.00 0.02 0.00 53 1015.6
20260831181805 75 134 3.0 7.0 0.00 0.02 0.00 54 1015.6
20260831181305 74 163 4.0 7.0 0.00 0.02 0.00 54 1015.6
20260831180805 74 161 4.0 7.0 0.00 0.02 0.00 53 1015.6
20260831180305 75 177 2.0 7.0 0.00 0.02 0.00 54 1015.6
20260831175306 75 158 6.0 9.0 0.00 0.02 0.00 52 1015.6
20260831174805 75 166 3.0 8.0 0.00 0.02 0.00 54 1015.6
20260831174305 74 119 3.0 7.0 0.00 0.02 0.00 55 1015.6
20260831173805 74 122 4.0 8.0 0.00 0.02 0.00 55 1015.6
20260831173305 73 137 5.0 8.0 0.00 0.02 0.00 55 1015.6
20260831172306 73 150 5.0 8.0 0.00 0.02 0.00 56 1015.6
20260831171305 73 156 5.0 8.0 0.00 0.02 0.00 56 1015.5
20260831170806 73 173 3.0 8.0 0.00 0.02 0.00 57 1015.5
20260831165305 71 154 3.0 8.0 0.00 0.02 0.00 59 1015.7
20260831164805 71 147 5.0 9.0 0.00 0.02 0.00 58 1015.7
20260831164304 71 168 6.0 9.0 0.00 0.02 0.00 59 1015.7
20260831163805 71 155 3.0 9.0 0.00 0.02 0.00 59 1015.6
20260831163305 71 165 6.0 10.0 0.00 0.02 0.00 58 1015.6
20260831162805 71 138 5.0 9.0 0.00 0.02 0.00 58 1015.6
20260831162306 71 136 6.0 8.0 0.00 0.02 0.00 58 1015.6
20260831161805 71 133 3.0 7.0 0.00 0.02 0.00 57 1015.0
20260831161305 71 135 4.0 8.0 0.00 0.02 0.00 57 1015.0
20260831160804 72 150 3.0 7.0 0.00 0.02 0.00 57 1015.0
20260831160304 72 177 3.0 6.0 0.00 0.02 0.00 57 1015.0
20260831155805 72 141 2.0 6.0 0.00 0.02 0.00 58 1015.0
20260831154805 71 127 2.0 5.0 0.00 0.02 0.00 62 1015.0
20260831154305 70 156 2.0 5.0 0.00 0.02 0.00 62 1015.3
20260831153804 70 143 3.0 7.0 0.00 0.02 0.00 64 1015.3
20260831153305 69 153 2.0 7.0 0.00 0.02 0.00 65 1015.3
20260831152805 69 172 2.0 5.0 0.00 0.02 0.00 67 1015.3
20260831152306 69 161 2.0 3.0 0.00 0.02 0.00 67 1015.3
20260831151805 68 172 2.0 5.0 0.00 0.02 0.00 68 1015.3
20260831150805 68 186 3.0 5.0 0.00 0.02 0.00 69 1015.4
20260831145805 67 157 2.0 3.0 0.00 0.02 0.00 69 1015.4
20260831145306 67 173 1.0 3.0 0.00 0.02 0.00 69 1015.4
20260831144804 67 71 0.0 2.0 0.00 0.02 0.00 70 1015.4
20260831144305 66 71 0.0 1.0 0.00 0.02 0.00 70 1015.4
20260831143805 66 71 0.0 0.0 0.00 0.02 0.00 71 1015.4
20260831143305 66 71 1.0 3.0 0.00 0.02 0.00 71 1015.5
20260831142804 65 75 2.0 3.0 0.00 0.02 0.00 72 1015.1
20260831142306 64 69 2.0 3.0 0.00 0.02 0.00 73 1015.1
20260831141805 64 69 2.0 3.0 0.00 0.02 0.00 75 1015.1
20260831141305 63 69 0.0 3.0 0.00 0.02 0.00 76 1015.1
20260831140805 62 66 2.0 3.0 0.00 0.02 0.00 77 1015.1
20260831140305 62 85 0.0 0.0 0.00 0.02 0.00 78 1015.1
20260831135306 61 85 1.0 2.0 0.00 0.02 0.00 80 1015.1
20260831134804 61 85 1.0 2.0 0.00 0.02 0.00 81 1015.1
20260831134305 60 230 0.0 2.0 0.00 0.02 0.00 81 1015.1
20260831133805 60 230 0.0 0.0 0.00 0.02 0.00 81 1015.1
20260831132805 60 230 0.0 1.0 0.00 0.08 0.00 81 1015.0
20260831132307 60 246 0.0 2.0 0.00 0.08 0.00 81 1014.9
20260831131805 60 259 0.0 0.0 0.00 0.08 0.00 81 1014.6
20260831131305 60 24 0.0 0.0 0.00 0.08 0.00 81 1014.6
20260831130305 60 67 0.0 0.0 0.00 0.08 0.00 80 1014.6
20260831125805 60 67 0.0 0.0 0.00 0.08 0.00 79 1014.6
20260831125306 60 67 0.0 0.0 0.00 0.08 0.00 78 1014.6
20260831124305 60 67 0.0 2.0 0.00 0.08 0.00 79 1014.6
20260831123805 60 70 2.0 3.0 0.00 0.08 0.00 79 1014.6
20260831123305 60 82 3.0 5.0 0.00 0.08 0.00 80 1014.5
20260831122805 60 76 2.0 5.0 0.00 0.08 0.00 80 1014.6
20260831122306 60 77 1.0 5.0 0.00 0.08 0.00 81 1014.6
20260831121305 59 63 3.0 3.0 0.00 0.08 0.00 82 1014.5
20260831120805 59 63 0.0 3.0 0.00 0.08 0.00 82 1014.6
20260831120305 59 99 0.0 0.0 0.00 0.08 0.00 82 1014.7
20260831115804 59 157 0.0 0.0 0.00 0.08 0.00 82 1014.7
20260831115306 59 215 0.0 0.0 0.00 0.08 0.00 82 1014.8
20260831114805 59 215 0.0 0.0 0.00 0.08 0.00 82 1014.8
20260831113804 59 215 0.0 0.0 0.00 0.08 0.00 82 1014.9
20260831112804 59 215 0.0 0.0 0.00 0.08 0.00 82 1014.9
20260831112307 59 215 0.0 0.0 0.00 0.08 0.00 82 1014.9
20260831111804 59 215 0.0 2.0 0.00 0.08 0.00 82 1015.0
20260831111304 59 212 1.0 2.0 0.00 0.08 0.00 82 1015.0
20260831110805 59 101 1.0 3.0 0.00 0.08 0.00 82 1014.8
20260831110305 59 101 1.0 3.0 0.00 0.08 0.00 82 1014.8
20260831105306 59 94 0.0 3.0 0.00 0.08 0.00 82 1014.8
20260831104804 59 57 0.0 0.0 0.00 0.08 0.00 81 1014.8
20260831104304 59 57 0.0 0.0 0.00 0.08 0.00 81 1014.7
20260831103805 59 57 0.0 0.0 0.00 0.08 0.00 81 1014.7
20260831103305 59 57 0.0 0.0 0.00 0.08 0.00 81 1014.7
20260831102804 60 57 0.0 0.0 0.00 0.08 0.00 81 1014.7
20260831102306 60 57 0.0 0.0 0.00 0.08 0.00 81 1014.6
20260831101805 60 57 0.0 0.0 0.00 0.08 0.00 81 1014.4
20260831101304 60 57 0.0 0.0 0.00 0.08 0.00 81 1014.4
20260831100804 60 57 0.0 0.0 0.00 0.08 0.00 80 1014.2
20260831100305 60 57 0.0 0.0 0.00 0.08 0.00 80 1014.2
20260831095805 60 57 0.0 0.0 0.00 0.08 0.00 79 1014.2
20260831095306 60 57 0.0 0.0 0.00 0.08 0.00 79 1014.2
20260831094805 61 57 0.0 0.0 0.00 0.08 0.00 79 1014.2
20260831094305 61 57 0.0 0.0 0.00 0.08 0.00 78 1014.1
20260831093805 61 57 0.0 0.0 0.00 0.08 0.00 78 1014.2
20260831093305 61 57 0.0 0.0 0.00 0.08 0.00 78 1014.2
20260831092805 61 57 0.0 0.0 0.00 0.08 0.00 78 1014.2
20260831092306 61 57 0.0 1.0 0.00 0.08 0.00 78 1014.2
20260831091805 61 57 1.0 2.0 0.00 0.08 0.00 78 1014.1
20260831091305 61 57 0.0 0.0 0.00 0.08 0.00 78 1014.1
20260831090805 61 57 0.0 0.0 0.00 0.08 0.00 78 1014.0
20260831090305 61 57 0.0 2.0 0.00 0.08 0.00 78 1014.1
20260831085805 61 57 2.0 3.0 0.00 0.08 0.00 77 1014.1
20260831085306 61 80 1.0 3.0 0.00 0.08 0.00 77 1014.1
20260831083804 62 80 0.0 0.0 0.00 0.10 0.00 76 1014.1
20260831083305 62 80 0.0 0.0 0.00 0.10 0.00 76 1014.1
20260831082805 62 80 0.0 0.0 0.00 0.10 0.00 76 1014.1
20260831082306 62 80 0.0 0.0 0.00 0.10 0.00 76 1014.1
20260831081805 62 80 0.0 0.0 0.00 0.10 0.00 75 1014.1
20260831081305 62 80 0.0 0.0 0.00 0.10 0.00 75 1014.1
20260831080805 62 80 0.0 0.0 0.00 0.10 0.00 73 1014.1
20260831080305 62 80 0.0 0.0 0.00 0.10 0.00 72 1014.4
20260831075805 63 80 0.0 0.0 0.00 0.10 0.00 72 1014.5
20260831075306 63 80 1.0 3.0 0.00 0.10 0.00 72 1014.5
20260831074804 63 80 2.0 3.0 0.00 0.10 0.00 72 1014.5
20260831074305 63 108 0.0 3.0 0.00 0.10 0.00 72 1014.5
20260831073805 63 118 1.0 3.0 0.00 0.10 0.00 72 1014.5
20260831073305 63 114 1.0 2.0 0.00 0.10 0.00 72 1014.5
20260831072804 63 101 0.0 2.0 0.00 0.10 0.00 73 1014.7
20260831072306 63 65 0.0 0.0 0.00 0.10 0.00 73 1014.7
20260831071805 63 65 0.0 0.0 0.00 0.10 0.00 74 1014.7
20260831071306 63 65 0.0 0.0 0.00 0.10 0.00 73 1014.7
20260831070804 64 65 0.0 0.0 0.00 0.10 0.00 73 1014.6
20260831065805 64 65 1.0 3.0 0.00 0.10 0.00 73 1014.5
20260831064305 64 65 0.0 0.0 0.00 0.10 0.00 73 1014.4
20260831063805 64 65 0.0 0.0 0.00 0.11 0.00 72 1014.4
20260831063305 64 65 0.0 0.0 0.00 0.11 0.00 73 1014.4
20260831062805 64 65 0.0 0.0 0.00 0.11 0.00 73 1014.4
20260831062306 64 65 0.0 2.0 0.00 0.11 0.00 73 1014.4
20260831061804 64 65 1.0 2.0 0.00 0.11 0.00 73 1014.3
20260831061305 64 65 0.0 2.0 0.00 0.11 0.00 73 1014.2
20260831060804 64 65 0.0 1.0 0.00 0.11 0.00 73 1014.5
20260831055804 65 65 2.0 3.0 0.00 0.11 0.11 73 1014.5
20260831055306 65 65 1.0 3.0 0.00 0.11 0.11 73 1014.5
20260831054805 65 65 2.0 3.0 0.00 0.11 0.11 74 1014.5
20260831054304 65 74 2.0 3.0 0.00 0.11 0.11 74 1014.5
20260831053805 65 74 2.0 3.0 0.00 0.11 0.11 74 1014.5
20260831053304 65 74 1.0 3.0 0.00 0.11 0.11 74 1014.4
20260831052804 65 74 2.0 3.0 0.00 0.11 0.11 74 1014.6
20260831051805 65 74 0.0 0.0 0.00 0.11 0.11 74 1014.7
20260831051305 65 74 0.0 0.0 0.00 0.11 0.11 74 1014.6
20260831050805 65 74 0.0 0.0 0.00 0.11 0.11 74 1014.7
20260831045804 66 74 2.0 3.0 0.00 0.12 0.11 74 1014.7
20260831045306 66 83 0.0 0.0 0.00 0.12 0.11 74 1014.7
20260831044804 66 124 0.0 1.0 0.00 0.13 0.11 74 1014.5
20260831044305 66 124 0.0 2.0 0.00 0.14 0.11 74 1014.5
20260831043805 66 124 0.0 2.0 0.00 0.15 0.11 74 1014.5
20260831043305 66 124 1.0 2.0 0.00 0.15 0.11 74 1014.3
20260831042805 66 124 2.0 2.0 0.00 0.15 0.11 73 1014.2
20260831042306 67 124 1.0 3.0 0.00 0.15 0.11 73 1014.4
20260831041804 67 151 2.0 3.0 0.00 0.15 0.11 72 1014.4
20260831040805 67 67 0.0 1.0 0.00 0.15 0.11 71 1014.1
20260831035805 68 30 0.0 0.0 0.00 0.15 0.11 70 1013.9
20260831034805 68 339 0.0 0.0 0.00 0.16 0.11 70 1013.9
20260831034304 68 339 0.0 0.0 0.00 0.16 0.11 70 1013.9
20260831033804 68 339 0.0 2.0 0.00 0.16 0.11 70 1013.9
20260831033304 68 339 2.0 3.0 0.00 0.17 0.11 70 1013.9
20260831032306 68 66 0.0 0.0 0.00 0.18 0.11 70 1013.9
20260831031804 68 66 0.0 1.0 0.00 0.18 0.11 70 1013.9
20260831031304 69 66 0.0 1.0 0.00 0.18 0.11 70 1013.9
20260831030805 69 66 0.0 0.0 0.00 0.18 0.11 69 1013.8
20260831030304 69 66 0.0 0.0 0.00 0.18 0.11 69 1013.8
20260831025805 69 66 0.0 0.0 0.00 0.18 0.11 68 1013.7
20260831025306 69 66 0.0 0.0 0.00 0.18 0.11 68 1013.6
20260831024305 69 66 0.0 0.0 0.00 0.18 0.11 68 1013.6
20260831023804 69 66 0.0 3.0 0.00 0.18 0.11 68 1013.6
20260831023305 69 66 2.0 3.0 0.00 0.18 0.11 68 1013.6
20260831022804 69 66 0.0 3.0 0.00 0.18 0.11 68 1013.6
20260831022306 69 66 0.0 2.0 0.00 0.18 0.11 68 1013.6
20260831021805 70 66 2.0 3.0 0.00 0.18 0.11 67 1013.6
20260831021304 70 74 2.0 3.0 0.00 0.18 0.11 67 1013.6
20260831020804 70 59 2.0 3.0 0.00 0.18 0.11 66 1013.0
20260831020305 71 95 1.0 3.0 0.00 0.18 0.11 66 1013.0
20260831015805 71 96 1.0 3.0 0.00 0.18 0.11 65 1013.0
20260831014804 71 130 1.0 3.0 0.00 0.18 0.11 64 1013.1
20260831013805 72 134 2.0 6.0 0.00 0.18 0.11 64 1013.1
20260831013304 72 169 2.0 5.0 0.00 0.18 0.11 64 1013.1
20260831012306 73 143 3.0 7.0 0.00 0.19 0.11 62 1013.1
20260831011804 73 156 6.0 9.0 0.00 0.22 0.11 60 1013.0
20260831011305 75 163 7.0 14.0 0.00 0.28 0.11 56 1013.0
20260831010805 76 166 6.0 14.0 0.00 0.28 0.11 50 1013.0
20260831010304 76 179 5.0 7.0 0.00 0.28 0.11 46 1012.9
20260831005306 76 189 4.0 6.0 0.00 0.28 0.11 48 1012.9
20260831004804 77 203 4.0 7.0 0.00 0.28 0.11 51 1012.9
20260831004305 78 185 6.0 7.0 0.00 0.28 0.11 48 1012.9
20260831003305 79 326 5.0 8.0 0.00 0.28 0.11 44 1012.9
20260831002306 79 19 3.0 9.0 0.00 0.28 0.11 44 1012.9
20260831001304 79 50 4.0 7.0 0.00 0.28 0.11 44 1012.6
20260831000805 79 37 3.0 8.0 0.00 0.28 0.11 44 1012.6
20260830235805 79 347 8.0 12.0 0.00 0.28 0.11 45 1012.7
20260830235306 79 10 3.0 7.0 0.00 0.28 0.11 48 1012.7
20260830234804 78 22 4.0 7.0 0.00 0.28 0.11 48 1012.7
20260830234304 78 356 3.0 7.0 0.00 0.28 0.11 46 1012.7
20260830233805 77 203 1.0 2.0 0.00 0.28 0.11 44 1012.7
20260830233304 77 178 0.0 2.0 0.00 0.28 0.11 43 1012.7
20260830232306 77 178 0.0 0.0 0.01 0.28 0.11 42 1012.7
20260830231805 76 178 0.0 1.0 0.02 0.28 0.11 42 1012.6
20260830231304 76 178 0.0 2.0 0.02 0.28 0.11 44 1012.8
20260830230305 75 200 2.0 3.0 0.02 0.28 0.11 53 1013.2
20260830225306 76 210 3.0 5.0 0.02 0.28 0.11 52 1013.2
20260830224805 75 251 3.0 5.0 0.02 0.28 0.11 52 1012.9
20260830224304 75 267 2.0 3.0 0.02 0.28 0.11 56 1012.8
20260830223805 74 326 3.0 5.0 0.02 0.28 0.11 59 1013.5
20260830221804 75 231 6.0 8.0 0.00 0.26 0.09 53 1013.5
20260830221304 76 244 4.0 8.0 0.00 0.26 0.09 51 1013.5
20260830220804 76 274 1.0 2.0 0.00 0.26 0.09 48 1012.8
20260830215804 76 180 1.0 6.0 0.00 0.26 0.09 50 1012.8
20260830215305 76 157 3.0 6.0 0.00 0.26 0.09 51 1012.9
20260830214805 76 164 2.0 6.0 0.00 0.26 0.09 51 1012.9
20260830214304 77 152 2.0 3.0 0.00 0.26 0.09 50 1012.9
20260830213805 77 143 6.0 8.0 0.00 0.26 0.09 47 1013.1
20260830213304 77 167 4.0 7.0 0.00 0.26 0.09 49 1013.3
20260830212805 77 158 5.0 10.0 0.00 0.26 0.09 48 1013.3